Regional Weather Roundup
Issued by NWS

Home | Current Version | Previous Version | Text Only | Print | Product List | Glossary On
Versions: 1 2 3 4 5 6 7 8 9 10 11 12 13 14 15 16 17 18 19 20 21 22 23 24 25 26 27 28 29 30 31 32 33 34 35 36 37 38 39 40 41 42 43 44 45 46 47 48 49 50
000
ASUS45 KABQ 271510
RWRNM
NEW MEXICO REGIONAL WEATHER ROUNDUP
NATIONAL WEATHER SERVICE ALBUQUERQUE NM
900 AM MDT MON MAR 27 2017

NOTE: "FAIR" MEANS FEW OR NO CLOUDS BELOW 12,000 FEET AGL WITH NO
       SIGNIFICANT WEATHER OR OBSTRUCTIONS TO VISION.

      THIS PRODUCT IS RELEASED AS TWO VERSIONS.  ONE VERSION NEAR
      THE TOP OF THE HOUR CONTAINING PRELIMINARY DATA FROM ALBUQUERQUE
      AND OTHER STATIONS.  A FINAL VERSION WITH ADDITIONAL DATA IS
      ISSUED ABOUT 10 MINUTES AFTER THE HOUR.

NMZ501-503-504-510>518-271600-
NORTHWEST PLATEAU/NORTHCENTRAL MOUNTAINS

CITY           SKY/WX    TMP DP  RH WIND       PRES   REMARKS
FARMINGTON     FAIR      40  30  67 E7        29.98S
LOS ALAMOS     FAIR      42  25  51 CALM      30.04S
SANTA FE       FAIR      45  26  47 S6        30.02R
TAOS             N/A     39  27  60 CALM      30.05S
ANGEL FIRE     FAIR      32  27  80 CALM      30.08R

$$
NMZ402-403-502-505>509-271600-
WESTCENTRAL MOUNTAINS/SOUTHWEST MOUNTAINS

CITY           SKY/WX    TMP DP  RH WIND       PRES   REMARKS
GALLUP         FAIR      42  29  59 CALM      30.04R
GRANTS         FAIR      36  23  57 CALM      30.07R
SILVER CITY    FAIR      53  25  33 NW5       30.04S

$$
NMZ407-409-411-412-271600-
SOUTHERN DESERTS

CITY           SKY/WX    TMP DP  RH WIND       PRES   REMARKS
DEMING         FAIR      52  26  36 S3        30.02R
LAS CRUCES     FAIR      58  23  26 W9        30.02R
HOLLOMAN AFB   FAIR      54  20  26 S7        30.03R
ALAMOGORDO     FAIR      55  25  30 S8        30.01R
T OR C         FAIR      55  22  27 NW8       30.00R

$$
NMZ519>523-271600-
CENTRAL VALLEYS/CENTRAL HIGHLANDS

CITY           SKY/WX    TMP DP  RH WIND       PRES   REMARKS
ALBUQUERQUE    FAIR      48  27  44 N3        30.03R
DOUBLE EAGLE   SUNNY     48  25  40 S10       30.03R
MORIARTY ARPT  FAIR      43  25  48 S5        30.05S
CLINES CORNERS FAIR      50  25  37 W9        30.05R
BELEN          FAIR      46  23  39 CALM      30.02S
SOCORRO        FAIR      49  18  29 N3        30.02R

$$
NMZ524>526-539-540-271600-
SOUTHCENTRAL MOUNTAINS

CITY           SKY/WX    TMP DP  RH WIND       PRES   REMARKS
RUIDOSO        FAIR      50  16  25 S3        30.09R

$$
NMZ527>531-271600-
NORTHEAST HIGHLANDS/NORTHEAST PLAINS

CITY           SKY/WX    TMP DP  RH WIND       PRES   REMARKS
LAS VEGAS      FAIR      41  31  67 VRB3      30.03R
RATON          FAIR      39  33  79 E3        30.01R
CLAYTON        FAIR      50  37  61 S5        30.01R

$$
NMZ532>537-271600-
EASTCENTRAL PLAINS

CITY           SKY/WX    TMP DP  RH WIND       PRES   REMARKS
TUCUMCARI      FAIR      48  37  65 CALM      30.00R
CANNON AFB     FAIR      51  40  68 NE10      30.01R
CLOVIS AIRPORT FAIR      48  36  61 NE10      30.02R

$$
NMZ028-029-538-271600-
SOUTHEAST PLAINS

CITY           SKY/WX    TMP DP  RH WIND       PRES   REMARKS
ROSWELL        FAIR      52  34  50 N8        30.03
ARTESIA        FAIR      52  36  54 NE5       30.04R
CARLSBAD       FAIR      54  31  41 NE7       30.03R
HOBBS          SUNNY     48  36  61 N5        30.05R


$$



USA.gov is the U.S. government's official web portal to all federal, state and local government web resources and services.